Regional Weather Roundup
Issued by NWS

Home | Current Version | Previous Version | Graphics & Text | Print | Product List | Glossary On
Versions: 1 2 3 4 5 6 7 8 9 10 11 12 13 14 15 16 17 18 19 20 21 22 23 24 25 26 27 28 29 30 31 32 33 34 35 36 37 38 39 40 41 42 43 44 45 46 47 48 49 50
808
ASUS43 KIND 290809
RWRIN

WEATHER ROUNDUP FOR INDIANA
NATIONAL WEATHER SERVICE INDIANAPOLIS IN
400 AM EDT WED MAR 29 2017

NOTE: "FAIR" INDICATES FEW OR NO CLOUDS BELOW 12,000 FEET WITH NO
SIGNIFICANT WEATHER AND/OR OBSTRUCTIONS TO VISIBILITY.

* - STATION DOES NOT REPORT WEATHER SUCH AS PRECIPITATION OR FOG.

+ - STATION NOT QUALITY CONTROLLED BY THE NATIONAL WEATHER SERVICE.
    USE DATA WITH CAUTION...ESPECIALLY DEWPOINT AND RELATIVE
    HUMIDITY OBSERVATIONS.

INZ001>003-010>013-019-020-290900-
NORTHWEST INDIANA

CITY           SKY/WX    TMP DP  RH WIND       PRES   REMARKS
GARY /AIRPORT/ FOG       37  37 100 NE8       30.21F VSB 1/2
KNOX *+        CLEAR     36  28  75 NE8       30.20S
LA PORTE +     CLEAR     36  35  97 NE6       30.21F
MICHIGAN CITY+ FOG       32  32 100 CALM      30.22F VSB 1/4
MONTICELLO +   CLOUDY    46  41  83 E9        30.16F
RENSSELAER +   CLOUDY    45  43  93 NE9       30.18S
VALPARAISO     CLEAR     37  36  96 NE8       30.19F FOG

$$

LMZ046-743>745-290900-
SOUTHERN LAKE MICHIGAN

STATION/POSITION TIME  TEMP    WIND        PRES    WAVE
                       AIR SEA DIR/SP/G            HT
                 (UTC) (F)     (DEG/KT/KT) (MB)    (FT)
BURNS HARBOR     0740   36      80/ 11/ 12 1023.7F
MICHIGAN CITY    0740   35      70/  5/  6   N/A

$$

INZ004-005-014>016-021>024-290900-
NORTH CENTRAL INDIANA

CITY           SKY/WX    TMP DP  RH WIND       PRES   REMARKS
GOSHEN         CLEAR     34  31  88 NE3       30.21F FOG
LOGANSPORT +   CLOUDY    45  41  87 E6        30.18S
PERU/GRISSOM   CLOUDY    46  43  91 E12       30.16F
ROCHESTER +    PTCLDY    45  41  87 E8        30.18F
SOUTH BEND     CLEAR     31  31 100 NE6       30.21F FOG     WCI  25
WARSAW +       CLEAR     37  34  87 NE5       30.20F

$$

INZ006>009-017-018-025>027-290900-
NORTHEAST INDIANA

CITY           SKY/WX    TMP DP  RH WIND       PRES   REMARKS
ANGOLA *+      MOCLDY    30  30 100 CALM      30.20F VSB 3/4
AUBURN +       CLEAR     36  32  87 NE5       30.21F
FORT WAYNE     PTCLDY    39  35  86 NE7       30.20S
HUNTINGTON +   PTCLDY    41  40  95 NE3       30.19F
KENDALLVILLE +   N/A     33  33 100 NE3       30.21F FOG

$$

INZ028-029-035-036-043>045-051>053-290900-
WEST CENTRAL INDIANA

CITY           SKY/WX    TMP DP  RH WIND       PRES   REMARKS
CRAWFORDSVL +  CLOUDY    46  46 100 NE10      30.14S
GREENCASTLE +  CLOUDY    46  45  93 E5        30.13S
LAFAYETTE      CLOUDY    46  44  93 NE9       30.15F
TERRE HAUTE    CLOUDY    49  43  80 NE8       30.12F

$$

INZ030>032-037>040-046>048-054>057-064-065-290900-
CENTRAL INDIANA

CITY           SKY/WX    TMP DP  RH WIND       PRES   REMARKS
CP ATTERBURY + CLOUDY    50  46  87 NE7       30.14R
FISHERS *+     CLOUDY    46  46 100 E7        30.15S
FRANKFORT +    CLOUDY    49  47  92 E13       30.16F
GREENWOOD *+   CLOUDY    49  47  92 E6        30.15R
INDIANAPOLIS   CLOUDY    49  46  90 NE12      30.13S
-EAGLE CREEK   CLOUDY    49  45  86 NE9       30.13S
KOKOMO +       CLOUDY    45  42  89 E14       30.18S
MARION +       CLOUDY    44  40  86 E8        30.18F
MT COMFORT *+  CLOUDY    46  45  93 NE8       30.15R
SHELBYVILLE    CLOUDY    50  44  80 NE10      30.14R
ZIONSVILLE +   CLOUDY    46  45  93 NE6       30.15F

$$

INZ033-034-041-042-049-050-058-059-290900-
EAST CENTRAL INDIANA

CITY           SKY/WX    TMP DP  RH WIND       PRES   REMARKS
MUNCIE         CLOUDY    47  42  83 E12       30.16F
RICHMOND +     CLOUDY    43  41  93 NE13      30.16S

$$

INZ060-061-067>069-081>083-085>088-290900-
SOUTHWEST INDIANA

CITY           SKY/WX    TMP DP  RH WIND       PRES   REMARKS
EVANSVILLE     CLOUDY    51  48  89 N7        30.09R
HUNTINGBURG *+ CLEAR     50  47  89 NE7       30.09S
WASHINGTON +   CLEAR     49  46  88 CALM      30.10F

$$

INZ062-063-066-070>080-084-089>092-290900-
SOUTH CENTRAL AND SOUTHEAST INDIANA

CITY           SKY/WX    TMP DP  RH WIND       PRES   REMARKS
BEDFORD +      CLOUDY    52  45  76 NE7       30.10S
BLOOMINGTON    CLOUDY    51  45  79 E8        30.12R
MADISON *+     CLOUDY    52  46  82 NE8       30.13S
NORTH VERNON + CLOUDY   N/A N/A N/A NE6       30.13S
SEYMOUR +      CLOUDY    54  48  82 NE8       30.11S

$$





USA.gov is the U.S. government's official web portal to all federal, state and local government web resources and services.